This demonstration page uses our WeatherBlox Daily Observations layout. Learn more.

Left ArrowRight Arrow

38.20091, -84.87328

Hourly Observations for October 6, 2022

Temp ( °F °C ) Dew Point ( °F °C ) Humidity (%) Winds ( mph kmh ) Pressure ( in mb ) Visibility ( mi km ) Precip ( " mm )
12:53 am 00:53 Clear 46 7.8 43 6.1 89 89 Calm 30.08 1019 10 16 0.00 0.00
1:53 am 01:53 Clear 45 7.2 42 5.6 90 90 Calm 30.08 1019 10 16 0.00 0.00
2:53 am 02:53 Clear 45 7.2 42 5.6 90 90 NNW 3 6 30.07 1018 10 16 0.00 0.00
3:53 am 03:53 Clear 44 6.7 41 5 89 89 Calm 30.07 1018 10 16 0.00 0.00
4:53 am 04:53 Clear 45 7.2 42 5.6 90 90 Calm 30.06 1018 10 16 0.00 0.00
5:53 am 05:53 Clear 46 7.8 43 6.1 89 89 Calm 30.06 1018 10 16 0.00 0.00
6:53 am 06:53 Clear 47 8.3 43 6.1 86 86 Calm 30.08 1019 10 16 0.00 0.00
7:53 am 07:53 Sunny 47 8.3 44 6.7 90 90 Calm 30.08 1019 10 16 0.00 0.00
8:53 am 08:53 Mostly Cloudy 50 10 46 7.8 86 86 Calm 30.10 1019 10 16 0.00 0.00
9:53 am 09:53 Mostly Cloudy 56 13.3 48 8.9 75 75 Calm 30.11 1020 10 16 0.01 0.13
10:53 am 10:53 Partly Cloudy 65 18.3 47 8.3 52 52 SW 7 11 30.11 1020 10 16 0.00 0.00
11:53 am 11:53 Mostly Cloudy 64 17.8 52 11.1 65 65 Calm 30.10 1019 10 16 0.01 0.13
12:53 pm 12:53 Mostly Sunny 73 22.8 46 7.8 38 38 VRB 3 6 30.07 1018 10 16 0.00 0.00
1:53 pm 13:53 Mostly Cloudy 74 23.3 42 5.6 32 32 W 5 7 30.05 1018 10 16 0.00 0.00
2:53 pm 14:53 Mostly Cloudy 77 25 39 3.9 25 25 WSW 9 15 30.03 1017 10 16 0.00 0.00
3:53 pm 15:53 Mostly Cloudy 75 23.9 44 6.7 33 33 WSW 7 11 30.02 1017 10 16 0.00 0.00
4:53 pm 16:53 Mostly Cloudy 76 24.4 42 5.6 30 30 SSW 7 11 30.02 1017 10 16 0.00 0.00
5:53 pm 17:53 Mostly Sunny 75 23.9 41 5 29 29 W 6 9 30.02 1017 10 16 0.00 0.00
6:53 pm 18:53 Mostly Sunny 68 20 49 9.4 50 50 Calm 30.03 1017 10 16 0.00 0.00
7:53 pm 19:53 Mostly Cloudy 61 16.1 50 10 67 67 Calm 30.04 1017 10 16 0.00 0.00
8:53 pm 20:53 Partly Cloudy 58 14.4 49 9.4 72 72 Calm 30.05 1018 10 16 0.00 0.00
9:53 pm 21:53 Clear 54 12.2 47 8.3 77 77 Calm 30.05 1018 10 16 0.00 0.00
10:53 pm 22:53 Clear 52 11.1 47 8.3 83 83 Calm 30.05 1018 10 16 0.00 0.00
11:53 pm 23:53 Clear 51 10.6 47 8.3 86 86 Calm 30.06 1018 10 16 0.00 0.00

Powered by AerisWeather